User: anonymous   Login
Location: Beckers Corners
(42.5484°N, 73.8110°W)
Time: 20:09:05
(UTC+00:00)
Language:

DIWATA 2B (PO-101) - Orbit

View from above orbital plane
View from above orbital plane
View from above satellite
View from above satellite

Ground track
Ground track

The orbit data is extracted from the following two-line orbital elements,

1 43678U 18084H   24340.50702071  .00003273  00000-0  29128-3 0  9994
2 43678  98.0869 143.9084 0008512 177.7970 182.3289 14.96785829332531
Epoch (UTC): 05 December 2024 12:10:06
Eccentricity: 0.0008512
inclination: 98.0869°
perigee height: 571 km
apogee height: 583 km
right ascension of ascending node: 143.9084°
argument of perigee: 177.7970°
revolutions per day: 14.96785829
mean anomaly at epoch: 182.3289°
orbit number at epoch: 33253

The dashed part of the orbit path shows where the satellite is in the earth's shadow,  

DLR